Regional Weather Roundup
Issued by NWS Jackson, KY

Home | Current Version | Previous Version | Text Only | Print | Product List | Glossary On
Versions: 1 2 3 4 5 6 7 8 9 10 11 12 13 14 15 16 17 18 19 20 21 22 23 24 25 26 27 28 29 30 31 32 33 34 35 36 37 38 39 40 41 42 43 44 45 46 47 48 49 50
000
ASUS43 KJKL 310810
RWRJKL

EAST KENTUCKY HOURLY WEATHER ROUNDUP
NATIONAL WEATHER SERVICE JACKSON KY
400 AM EDT FRI JUL 31 2015

NOTE: "FAIR" INDICATES FEW OR NO CLOUDS BELOW 12,000 FEET WITH
NO SIGNIFICANT WEATHER AND/OR OBSTRUCTIONS TO VISIBILITY.

* THESE REPORTS ARE NOT UNDER NWS QUALITY CONTROL AND MAY NOT
  REPORT WEATHER SUCH AS PRECIPITATION AND FOG.

KYZ079-080-083-085-087-088-110-112-115-119-120-310900
...EASTERN KENTUCKY...

CITY           SKY/WX    TMP DP  RH WIND       PRES   REMARKS
JACKSON        CLEAR     66  58  75 NW5       30.07F
LONDON         CLEAR     64  59  83 CALM      30.08S
SOMERSET*      CLEAR     59  59 100 CALM      30.09S
MONTICELLO*    CLEAR     59  59 100 CALM      30.11S FOG
WILLIAMSBURG*  CLEAR     61  61 100 CALM      30.08S
MIDDLESBORO*   CLEAR     62  62 100 CALM      30.09R
HAZARD APT*    SUNNY     63  63 100 CALM      30.07
BLACK MTN*       N/A     59  55  88 N9          N/A
PIKEVILLE APT* CLEAR     66  63  88 CALM      30.07F
BIG SANDY*     SUNNY     65  63  91 CALM      30.06S
MOREHEAD APT*  SUNNY     63  61  94 CALM      30.08F
$$

KYZ035-036-041-042-044-050-067-078-099-310900
...CENTRAL KENTUCKY...

CITY           SKY/WX    TMP DP  RH WIND       PRES   REMARKS
MT STERLING*   CLEAR     61  61 100 CALM      30.08S
FLEMING/MASON* CLEAR     63  61  94 W6        30.07F
DANVILLE*      CLEAR     61  59  94 CALM      30.09S
RICHMOND*      CLEAR     63  59  88 CALM      30.06F
LEXINGTON      CLEAR     65  60  84 NW3       30.07F
FRANKFORT      CLEAR     63  60  90 N3        30.06F
$$

KYZ091>093-OHZ055-061-077-WVZ005-015-034-035-042-310900
...SOUTHERN OHIO/WEST VIRGINIA...

CITY           SKY/WX    TMP DP  RH WIND       PRES   REMARKS
COVINGTON      CLEAR     68  62  80 VRB3      30.06F
COLUMBUS       CLEAR     64  61  90 CALM      30.02S
DAYTON         CLEAR     64  59  83 W6        30.06S
WILMINGTON     CLEAR     62  59  90 W3        30.05F
HUNTINGTON     CLEAR     62  61  96 CALM      30.03F
CHARLESTON     PTCLDY    63  61  93 CALM      30.03F
PINEVILLE*     FOG       62  62 100 MISG      30.13S VSB 1/4
BECKLEY        CLEAR     59  56  89 CALM      30.10F
BLUEFIELD      CLEAR     65  56  72 W3        30.12F
$$

VAZ002-007-008-TNZ017-027-036-066-071-310900
...SOUTHWEST VIRGINIA/EAST TENNESSEE...

CITY           SKY/WX    TMP DP  RH WIND       PRES   REMARKS
WISE*          MOCLDY    63  61  94 CALM      30.14S
ABINGDON*      CLEAR     63  60  90 CALM      30.09S
BRISTOL        PTCLDY    63  60  90 CALM      30.06F
KNOXVILLE      PTCLDY    71  62  73 NE6       30.03S
OAK RIDGE      CLEAR     69  62  78 CALM      30.06S
CROSSVILLE     CLEAR     66  58  75 NE3       30.11R
NASHVILLE      PTCLDY    70  63  78 N5        30.07S
$$

...KEY TO REMARKS...
VSB - VISIBILITY IN MILES
WCI - WIND CHILL INDEX
HX  - HEAT INDEX

$$



USA.gov is the U.S. government's official web portal to all federal, state and local government web resources and services.